Weather History for KCOD - May, 2013

Change the Weather History Date:

Saturday, May 18, 2013

  Actual Average Record
Temperature  
Mean Temperature 48 °F -  
Max Temperature 51 °F 66 °F 89 °F (1937)
Min Temperature 44 °F 41 °F 23 °F (1942)
Degree Days  
Heating Degree Days 18    
Moisture  
Dew Point 45 °F    
Average Humidity 88    
Maximum Humidity 100    
Minimum Humidity 76    
Precipitation  
Precipitation 0.80 in - - ()
Sea Level Pressure  
Sea Level Pressure 29.92 in    
Wind  
Wind Speed 5 mph (NW)    
Max Wind Speed 15 mph    
Max Gust Speed 18 mph    
Visibility 10 miles    
Events      
Averages and records for this station are not official NWS values.
T = Trace of Precipitation, MM = Missing Value Source: NWS Daily Summary

Daily Weather History Graph

Daily Weather History Graph

Search for Another Location

Airport or City:

Trip Planner

Search our weather history database for the weather conditions in past years. The results will help you decide how hot, cold, wet, or windy it might be!

Date:

Astronomy

May. 18, 2013 Rise Set
Actual Time 5:45 AM MDT 8:40 PM MDT
Civil Twilight 5:10 AM MDT 9:15 PM MDT
Nautical Twilight 4:27 AM MDT 9:58 PM MDT
Astronomical Twilight 3:35 AM MDT 10:50 PM MDT
Moon 1:31 PM MDT (5/18) 1:56 AM MDT (5/18)
Length of Visible Light 16h 04m
Length of Day
14h 55m
First Quarter, 56% of the Moon is Illuminated
May 18
First Quarter
May 24
Full
May 31
Last Quarter
Jun 8
New
Jun 16
First Quarter

Hourly Weather History & Observations

Time (MDT) Temp. Windchill Dew Point Humidity Pressure Visibility Wind Dir Wind Speed Gust Speed Precip Events Conditions
12:15 AM 46.4 °F 45.2 °F 46.4 °F 100% 29.90 in 10.0 mi SSE 3.5 mph - N/A   Clear
12:35 AM 46.4 °F 42.9 °F 44.6 °F 93% 29.90 in 10.0 mi SE 6.9 mph - N/A   Clear
12:55 AM 46.4 °F 45.2 °F 44.6 °F 93% 29.90 in 10.0 mi SSE 3.5 mph - N/A   Clear
1:15 AM 46.4 °F 43.5 °F 44.6 °F 93% 29.91 in 10.0 mi South 5.8 mph - N/A   Scattered Clouds
1:35 AM 46.4 °F 45.2 °F 44.6 °F 93% 29.92 in 10.0 mi South 3.5 mph - N/A   Overcast
1:55 AM 46.4 °F 45.2 °F 44.6 °F 93% 29.92 in 10.0 mi NNE 3.5 mph - N/A   Overcast
2:15 AM 46.4 °F 45.2 °F 46.4 °F 100% 29.92 in 5.0 mi North 3.5 mph - N/A   Overcast
2:35 AM 46.4 °F 45.2 °F 46.4 °F 100% 29.92 in 5.0 mi North 3.5 mph - N/A   Overcast
2:55 AM 46.4 °F - 46.4 °F 100% 29.91 in 5.0 mi Calm Calm - N/A   Overcast
3:15 AM 46.4 °F 43.5 °F 46.4 °F 100% 29.89 in 10.0 mi NW 5.8 mph - N/A   Mostly Cloudy
3:35 AM 46.4 °F 45.2 °F 46.4 °F 100% 29.89 in 10.0 mi North 3.5 mph - N/A   Partly Cloudy
4:15 AM 46.4 °F - 46.4 °F 100% 29.89 in 10.0 mi Calm Calm - N/A   Scattered Clouds
4:35 AM 46.4 °F - 46.4 °F 100% 29.89 in 10.0 mi Calm Calm - N/A   Mostly Cloudy
4:55 AM 46.4 °F 45.2 °F 46.4 °F 100% 29.89 in 10.0 mi NE 3.5 mph - N/A   Overcast
5:15 AM 46.4 °F 45.2 °F 46.4 °F 100% 29.89 in 9.0 mi ENE 3.5 mph - N/A   Overcast
5:35 AM 48.2 °F - 46.4 °F 93% 29.90 in 10.0 mi Calm Calm - N/A   Overcast
5:55 AM 48.2 °F - 46.4 °F 93% 29.92 in 10.0 mi South 4.6 mph - 0.01 in   Overcast
6:15 AM 48.2 °F - 46.4 °F 93% 29.92 in 6.0 mi South 5.8 mph - 0.05 in   Overcast
6:35 AM 48.2 °F - 46.4 °F 93% 29.93 in 5.0 mi South 4.6 mph - 0.08 in   Mostly Cloudy
6:55 AM 46.4 °F 41.5 °F 44.6 °F 93% 29.93 in 10.0 mi SW 10.4 mph - 0.16 in   Mostly Cloudy
7:35 AM 46.4 °F 43.5 °F 42.8 °F 87% 29.93 in 10.0 mi West 5.8 mph - 0.13 in   Overcast
7:55 AM 46.4 °F 42.9 °F 42.8 °F 87% 29.92 in 10.0 mi West 6.9 mph - 0.18 in   Overcast
8:15 AM 46.4 °F 43.5 °F 42.8 °F 87% 29.93 in 10.0 mi West 5.8 mph - 0.07 in   Overcast
8:36 AM 46.4 °F 44.3 °F 42.8 °F 87% 29.93 in 10.0 mi WSW 4.6 mph - 0.12 in   Overcast
8:55 AM 44.6 °F 39.7 °F 42.8 °F 93% 29.94 in 10.0 mi SW 9.2 mph - 0.21 in   Overcast
9:15 AM 44.6 °F 40.2 °F 42.8 °F 93% 29.94 in 9.0 mi SW 8.1 mph - 0.05 in   Overcast
9:35 AM 46.4 °F 42.4 °F 44.6 °F 93% 29.95 in 10.0 mi WSW 8.1 mph - 0.11 in   Overcast
9:55 AM 46.4 °F 43.5 °F 42.8 °F 87% 29.94 in 10.0 mi West 5.8 mph - 0.14 in   Overcast
10:16 AM 46.4 °F 42.9 °F 42.8 °F 87% 29.94 in 10.0 mi SW 6.9 mph - 0.03 in   Overcast
10:35 AM 46.4 °F 45.2 °F 44.6 °F 93% 29.94 in 10.0 mi West 3.5 mph - 0.05 in   Overcast
10:55 AM 48.2 °F - 44.6 °F 87% 29.93 in 10.0 mi WNW 5.8 mph - 0.05 in   Overcast
11:15 AM 48.2 °F - 42.8 °F 82% 29.93 in 10.0 mi WNW 6.9 mph - N/A   Overcast
11:35 AM 51.8 °F - 44.6 °F 76% 29.92 in 10.0 mi North 4.6 mph - N/A   Overcast
11:55 AM 51.8 °F - 44.6 °F 76% 29.92 in 10.0 mi NNW 9.2 mph - 0.01 in   Mostly Cloudy
12:35 PM 51.8 °F - 44.6 °F 76% 29.92 in 10.0 mi NNE 12.7 mph - N/A   Overcast
1:15 PM 51.8 °F - 46.4 °F 82% 29.92 in 10.0 mi North 15.0 mph - N/A   Overcast
1:35 PM 51.8 °F - 44.6 °F 76% 29.91 in 10.0 mi NNE 12.7 mph - N/A   Overcast
1:55 PM 51.8 °F - 46.4 °F 82% 29.90 in 10.0 mi North 13.8 mph - N/A   Overcast
2:15 PM 51.8 °F - 46.4 °F 82% 29.91 in 10.0 mi North 13.8 mph - N/A   Overcast
2:35 PM 51.8 °F - 46.4 °F 82% 29.92 in 10.0 mi North 15.0 mph 18.4 mph N/A   Overcast
3:15 PM 51.8 °F - 44.6 °F 76% 29.92 in 10.0 mi North 10.4 mph - N/A   Overcast
3:35 PM 51.8 °F - 44.6 °F 76% 29.92 in 10.0 mi North 11.5 mph - N/A   Overcast
3:55 PM 51.8 °F - 44.6 °F 76% 29.92 in 10.0 mi North 10.4 mph - N/A   Overcast
4:15 PM 51.8 °F - 44.6 °F 76% 29.92 in 10.0 mi North 9.2 mph - N/A   Overcast
4:35 PM 51.8 °F - 44.6 °F 76% 29.92 in 10.0 mi North 10.4 mph - N/A   Mostly Cloudy
4:55 PM 51.8 °F - 46.4 °F 82% 29.92 in 10.0 mi North 8.1 mph - N/A   Overcast
5:55 PM 51.8 °F - 44.6 °F 76% 29.93 in 10.0 mi NW 8.1 mph - N/A   Mostly Cloudy
6:15 PM 51.8 °F - 46.4 °F 82% 29.93 in 10.0 mi WNW 5.8 mph - N/A   Overcast
6:35 PM 51.8 °F - 44.6 °F 76% 29.93 in 10.0 mi WNW 5.8 mph - N/A   Overcast
6:55 PM 51.8 °F - 44.6 °F 76% 29.94 in 10.0 mi WNW 4.6 mph - N/A   Overcast
7:35 PM 50.0 °F - 44.6 °F 82% 29.94 in 10.0 mi Calm Calm - 0.01 in   Overcast
7:55 PM 50.0 °F - 44.6 °F 82% 29.95 in 10.0 mi WNW 5.8 mph - 0.01 in   Overcast
8:15 PM 50.0 °F - 44.6 °F 82% 29.95 in 10.0 mi WNW 8.1 mph - N/A   Overcast
8:35 PM 48.2 °F - 44.6 °F 87% 29.95 in 10.0 mi West 3.5 mph - N/A   Overcast
8:55 PM 48.2 °F - 44.6 °F 87% 29.94 in 10.0 mi NW 3.5 mph - N/A   Overcast
9:15 PM 48.2 °F - 44.6 °F 87% 29.93 in 10.0 mi NW 5.8 mph - N/A   Overcast
9:55 PM 48.2 °F - 44.6 °F 87% 29.92 in 10.0 mi Calm Calm - N/A   Overcast
10:15 PM 48.2 °F - 44.6 °F 87% 29.94 in 10.0 mi NNE 4.6 mph - N/A   Overcast
10:35 PM 48.2 °F - 44.6 °F 87% 29.95 in 10.0 mi NNE 3.5 mph - N/A   Overcast
10:55 PM 48.2 °F - 44.6 °F 87% 29.96 in 10.0 mi NNE 5.8 mph - 0.01 in   Overcast
11:15 PM 48.2 °F - 44.6 °F 87% 29.96 in 10.0 mi North 5.8 mph - N/A   Overcast
11:35 PM 48.2 °F - 44.6 °F 87% 29.96 in 10.0 mi North 5.8 mph - 0.01 in   Overcast
11:55 PM 48.2 °F - 44.6 °F 87% 29.95 in 10.0 mi NNW 3.5 mph - 0.02 in   Overcast